DW8548 Weather Reports


Display with metric or nautical units.
time (UTC)temp
F
wind
direction
speed
MPH
gust
MPH
rain 1hr
in
rain 24hr
in
rain mn
in
humidity
%
barometer
mb
20260906103104 59 184 2.0 8.0 0.00 0.18 0.00 67 1025.9
20260906101605 60 157 1.0 8.0 0.00 0.18 0.00 67 1025.6
20260906100108 60 121 2.0 7.0 0.00 0.18 0.00 66 1025.5
20260906094601 61 114 1.0 7.0 0.00 0.18 0.00 65 1025.2
20260906093058 62 97 1.0 9.0 0.00 0.18 0.00 64 1024.9
20260906091614 62 186 1.0 7.0 0.00 0.18 0.00 65 1024.7
20260906090111 62 99 1.0 11.0 0.00 0.18 0.00 64 1024.4
20260906084602 63 69 1.0 9.0 0.00 0.18 0.00 63 1024.4
20260906083104 63 105 2.0 8.0 0.00 0.18 0.00 61 1024.3
20260906081601 64 122 2.0 8.0 0.00 0.18 0.00 60 1024.2
20260906080111 64 90 2.0 7.0 0.00 0.18 0.00 61 1024.0
20260906074604 65 134 2.0 6.0 0.00 0.18 0.00 62 1023.9
20260906073059 63 119 3.0 9.0 0.00 0.18 0.00 63 1023.9
20260906071614 65 154 2.0 8.0 0.00 0.18 0.00 62 1023.7
20260906070109 63 51 3.0 10.0 0.00 0.18 0.00 64 1023.8
20260906064603 62 133 1.0 6.0 0.00 0.18 0.00 66 1023.9
20260906063101 62 87 2.0 6.0 0.00 0.18 0.00 66 1023.8
20260906061605 62 0 2.0 10.0 0.00 0.18 0.00 65 1023.6
20260906060151 63 153 2.0 9.0 0.00 0.18 0.00 65 1023.6
20260906054613 62 136 2.0 7.0 0.00 0.22 0.00 66 1023.6
20260906053102 63 129 1.0 8.0 0.00 0.22 0.00 65 1023.5
20260906051605 62 113 2.0 10.0 0.00 0.22 0.00 66 1023.6
20260906050116 61 69 3.0 9.0 0.00 0.22 0.00 68 1023.7
20260906044600 61 171 3.0 10.0 0.00 0.22 0.00 67 1023.8
20260906043109 61 186 3.0 11.0 0.00 0.22 0.00 69 1023.8
20260906041604 61 192 2.0 12.0 0.00 0.22 0.00 70 1023.9
20260906040100 61 69 2.0 10.0 0.00 0.22 0.00 68 1024.0
20260906034603 60 117 2.0 8.0 0.00 0.22 0.00 71 1024.1
20260906033101 61 40 2.0 8.0 0.00 0.22 0.00 70 1024.2
20260906031630 60 142 2.0 8.0 0.00 0.22 0.00 72 1024.0
20260906030100 60 77 3.0 9.0 0.00 0.22 0.00 71 1024.1
20260906024604 60 109 3.0 12.0 0.00 0.22 0.00 72 1023.8
20260906023113 60 234 3.0 11.0 0.00 0.22 0.00 74 1023.8
20260906021607 59 84 2.0 12.0 0.00 0.22 0.00 74 1023.8
20260906014634 58 23 3.0 11.0 0.00 0.22 0.00 76 1023.8
20260906013101 59 186 2.0 9.0 0.00 0.22 0.00 78 1023.6
20260906011617 58 143 2.0 10.0 0.00 0.22 0.00 79 1023.5
20260906010107 58 188 1.0 6.0 0.00 0.22 0.00 82 1023.1
20260906004614 57 98 1.0 8.0 0.00 0.22 0.00 84 1022.9
20260906003102 56 147 2.0 8.0 0.00 0.22 0.00 85 1022.8
20260906001609 55 243 1.0 6.0 0.00 0.22 0.00 87 1022.7
20260906000109 55 98 2.0 6.0 0.00 0.22 0.00 88 1022.4
20260905234601 54 0 0.0 5.0 0.00 0.22 0.00 89 1022.3
20260905233104 54 145 1.0 6.0 0.00 0.22 0.00 90 1021.9
20260905231618 54 85 1.0 7.0 0.00 0.22 0.00 91 1021.5
20260905230108 53 219 1.0 6.0 0.00 0.22 0.00 91 1021.3
20260905224600 53 198 0.0 7.0 0.00 0.22 0.00 91 1021.0
20260905223105 54 198 0.0 5.0 0.00 0.22 0.00 92 1020.5
20260905221619 54 200 1.0 4.0 0.00 0.22 0.00 92 1020.4
20260905220104 54 0 2.0 6.0 0.00 0.22 0.00 92 1020.2
20260905214608 54 140 2.0 4.0 0.00 0.22 0.00 92 1019.8
20260905213105 54 138 1.0 7.0 0.00 0.22 0.00 92 1019.6
20260905211605 54 44 2.0 9.0 0.00 0.22 0.00 93 1019.5
20260905210111 54 207 1.0 4.0 0.00 0.22 0.00 93 1019.4
20260905204558 54 132 2.0 7.0 0.00 0.22 0.00 93 1019.0
20260905203102 53 219 1.0 7.0 0.00 0.22 0.00 93 1018.7
20260905201600 53 247 1.0 6.0 0.00 0.22 0.00 93 1018.3
20260905200129 53 71 1.0 6.0 0.00 0.22 0.00 93 1018.0
20260905194603 53 248 2.0 9.0 0.00 0.22 0.00 93 1017.8
20260905193101 53 153 0.0 6.0 0.00 0.22 0.00 93 1017.4
20260905191602 53 197 1.0 8.0 0.00 0.22 0.00 93 1017.1
20260905190105 53 204 1.0 6.0 0.00 0.22 0.00 94 1017.1
20260905184606 54 180 0.0 4.0 0.00 0.22 0.00 93 1017.1
20260905183105 54 0 0.0 6.0 0.00 0.22 0.00 94 1017.1
20260905181607 54 140 0.0 4.0 0.00 0.22 0.00 94 1017.1
20260905180116 55 0 0.0 2.0 0.00 0.22 0.00 94 1017.1
20260905174605 55 0 0.0 1.0 0.00 0.22 0.00 94 1017.1
20260905173127 55 0 0.0 2.0 0.00 0.22 0.00 94 1016.9
20260905171600 56 103 0.0 0.0 0.00 0.22 0.00 94 1016.8
20260905170106 56 0 0.0 0.0 0.00 0.22 0.00 94 1016.5
20260905164614 56 0 0.0 0.0 0.00 0.22 0.00 94 1016.2
20260905163103 56 0 0.0 0.0 0.00 0.22 0.00 94 1016.1
20260905161605 56 0 0.0 0.0 0.00 0.22 0.00 94 1016.0
20260905160107 56 0 0.0 0.0 0.00 0.22 0.00 94 1016.0
20260905154605 56 0 0.0 0.0 0.00 0.22 0.22 93 1016.0
20260905153100 56 0 0.0 0.0 0.00 0.21 0.21 93 1016.0
20260905151606 56 0 0.0 1.0 0.00 0.21 0.21 93 1016.1
20260905150127 56 0 0.0 2.0 0.00 0.21 0.21 93 1016.2
20260905144609 56 0 0.0 1.0 0.00 0.21 0.21 93 1016.1
20260905143104 56 0 0.0 0.0 0.00 0.21 0.21 93 1016.1
20260905141605 56 184 0.0 2.0 0.00 0.21 0.21 93 1016.1
20260905140113 56 0 0.0 0.0 0.00 0.21 0.21 93 1016.1
20260905134606 56 0 0.0 1.0 0.01 0.21 0.21 92 1016.0
20260905133105 56 0 0.0 0.0 0.01 0.21 0.21 92 1016.0
20260905131600 56 0 0.0 0.0 0.00 0.20 0.20 92 1016.0
20260905124600 56 0 0.0 2.0 0.00 0.19 0.19 91 1015.8
20260905123106 56 0 0.0 1.0 0.03 0.19 0.19 91 1015.5
20260905121605 57 0 0.0 1.0 0.12 0.19 0.19 91 1015.7
20260905120112 57 0 0.0 5.0 0.16 0.19 0.19 91 1015.6
20260905114611 57 244 1.0 7.0 0.15 0.18 0.18 90 1015.6
20260905113102 57 342 2.0 7.0 0.13 0.16 0.16 89 1015.3
20260905111653 58 331 2.0 7.0 0.03 0.07 0.07 88 1015.2
20260905110059 58 5 1.0 8.0 0.00 0.03 0.03 87 1015.0
20260905104559 59 0 1.0 6.0 0.00 0.03 0.03 87 1014.8